[[{"header":{"parameterUnit":"m.s-1","parameterCategory":1,"la1":30.2991,"la2":30.254,"lo1":-89.0895,"lo2":-89.0444,"dy":0.0017,"dx":0.0017,"nx":28,"ny":28,"refTime":"2024-06-14T09:00:00:Z","depth":0,"parameterNumber":2,"parameterNumberName":"U-component_of_WINDS"},"data":[0,0,0,0,0,0,0,0,0,0,0,0,0,0,0,0,0,0,0,0,0,0,0,0,0,0,0,0,0,0,0,0,0,0,0,0,0,0,0,0,0,0,0,0,0,0,0,0,0,0,0,0,0,0,0,0,0,0,-1.0774,-1.0774,0,-1.0744,-1.0744,-1.0743,-1.071,-1.0709,-1.0709,-1.0708,-1.0679,-1.0679,-1.0679,0,0,0,0,0,0,0,0,0,0,0,0,0,-1.0804,-1.0804,-1.0774,-1.0774,-1.0773,-1.0744,-1.0744,-1.0743,-1.071,-1.0709,-1.0709,-1.0708,-1.0679,-1.0679,-1.0678,0,0,0,0,0,0,0,0,0,0,0,0,0,-1.0784,-1.0804,-1.0774,-1.0753,-1.0751,-1.0744,-1.0744,-1.0743,-1.071,-1.0709,-1.0709,-1.0708,-1.0679,-1.0679,-1.0678,-1.069,0,0,-1.0677,-1.0677,0,0,0,0,0,0,0,0,-1.0785,-1.0783,-1.0757,-1.0755,-1.0752,-1.073,-1.0743,-1.0725,-1.071,-1.0726,-1.0708,-1.0708,-1.0697,-1.0695,-1.0691,-1.0689,-1.0688,-1.0677,-1.0677,-1.0676,-1.0676,0,0,0,0,0,0,0,-1.0787,-1.0784,-1.0762,-1.0756,-1.0753,-1.0746,-1.0742,-1.074,-1.0716,-1.0724,-1.0722,-1.0719,-1.0695,-1.0691,-1.069,-1.0687,-1.0677,-1.0676,-1.0676,-1.0676,-1.0694,-1.0695,0,0,0,0,0,0,-1.0791,-1.0786,-1.0763,-1.0761,-1.0767,-1.0746,-1.0742,-1.0738,-1.0716,-1.0712,-1.0719,-1.0717,-1.0693,-1.069,-1.0689,-1.0702,-1.0676,-1.0676,-1.0676,-1.0693,-1.0694,-1.0695,0,0,0,0,0,0,-1.0792,-1.0789,-1.0764,-1.0773,-1.0769,-1.0746,-1.0742,-1.0738,-1.0733,-1.0712,-1.0708,-1.072,-1.0692,-1.0689,-1.069,-1.07,-1.0676,-1.0675,-1.0692,-1.0694,-1.0695,-1.0728,0,0,0,0,0,0,-1.0793,-1.079,-1.0794,-1.0773,-1.0769,-1.0766,-1.0742,-1.0738,-1.0733,-1.073,-1.0711,-1.0707,-1.0691,-1.0691,-1.069,-1.0699,-1.0675,-1.0691,-1.0693,-1.0694,-1.0726,-1.073,-1.0733,0,0,0,0,0,-1.0794,-1.0804,-1.0794,-1.0792,-1.0773,-1.0766,-1.0764,-1.0745,-1.0733,-1.0738,-1.0724,-1.0708,-1.0699,-1.0691,-1.069,-1.0699,-1.0691,-1.0693,-1.0694,-1.0724,-1.0729,-1.0733,0,0,0,0,0,0,-1.0827,-1.0801,-1.079,-1.0793,-1.0782,-1.0761,-1.0765,-1.0751,-1.0743,-1.0741,-1.0718,-1.0714,-1.0718,-1.0708,-1.07,-1.071,-1.0693,-1.0694,-1.0716,-1.0721,-1.0724,-1.0727,-1.0675,0,0,0,0,0,-1.0835,-1.0832,-1.0809,-1.0815,-1.081,-1.0789,-1.0785,-1.0771,-1.0759,-1.0754,-1.0741,-1.073,-1.0725,-1.0722,-1.0716,-1.0724,-1.072,-1.0729,-1.0733,-1.0737,-1.0738,-1.0743,-1.0747,-1.0701,-1.0701,-1.0701,0,0,-1.0851,-1.0836,-1.0836,-1.0821,-1.0811,-1.0808,-1.0785,-1.0783,-1.0781,-1.0754,-1.0754,-1.0744,-1.073,-1.0735,-1.0736,-1.0727,-1.075,-1.0739,-1.0742,-1.0742,-1.0745,-1.075,-1.0753,-1.0702,-1.0702,-1.0702,0,0,-1.0879,-1.0867,-1.0871,-1.0861,-1.0846,-1.0832,-1.0833,-1.0813,-1.0805,-1.0805,-1.0785,-1.0783,-1.0774,-1.0765,-1.076,-1.0785,-1.0771,-1.0784,-1.0805,-1.0809,-1.0813,-1.0816,-1.0826,-1.083,-1.0786,-1.0786,-1.0786,0,-1.0901,-1.0896,-1.0875,-1.0874,-1.0869,-1.0844,-1.0848,-1.0839,-1.0823,-1.0821,-1.081,-1.08,-1.0789,-1.0791,-1.0798,-1.0794,-1.0795,-1.0786,-1.0814,-1.0817,-1.082,-1.0829,-1.0833,-1.0787,-1.0787,-1.0787,-1.0787,0,-1.0924,-1.0921,-1.0926,-1.0911,-1.0906,-1.0908,-1.0887,-1.0885,-1.0871,-1.0859,-1.0859,-1.0845,-1.0836,-1.0836,-1.0823,-1.0837,-1.0832,-1.0818,-1.0801,-1.0826,-1.0835,-1.0838,-1.079,-1.0789,-1.0789,-1.0788,0,0,-1.0973,-1.0946,-1.0948,-1.0942,-1.0923,-1.0921,-1.0921,-1.0912,-1.0911,-1.0901,-1.0902,-1.0895,-1.0883,-1.0877,-1.0862,-1.0866,-1.0889,-1.0852,-1.0852,-1.0861,-1.0905,-1.0916,-1.092,-1.0878,-1.0879,-1.0879,-1.0906,0,-1.0999,-1.0999,-1.098,-1.0985,-1.0983,-1.0959,-1.096,-1.0949,-1.0937,-1.0933,-1.092,-1.0916,-1.09,-1.0896,-1.0898,-1.0885,-1.0897,-1.0883,-1.088,-1.088,-1.0885,-1.0924,-1.0936,-1.0962,-1.0909,-1.091,-1.091,0,-1.1029,-1.102,-1.1026,-1.1007,-1.1006,-1.1007,-1.0997,-1.0994,-1.0981,-1.0972,-1.0966,-1.095,-1.095,-1.0933,-1.0934,-1.0924,-1.0922,-1.0915,-1.0916,-1.0916,-1.0898,-1.0927,-1.097,-1.0974,-1.0915,-1.0914,-1.0914,0,-1.1066,-1.1055,-1.1057,-1.1052,-1.103,-1.1032,-1.1023,-1.1009,-1.1006,-1.0997,-1.0995,-1.0987,-1.0983,-1.0977,-1.096,-1.0949,-1.0963,-1.0944,-1.0957,-1.0957,-1.0962,-1.0962,-1.1007,-1.0958,-1.0958,-1.0958,-1.0958,0,-1.1097,-1.1101,-1.1073,-1.1075,-1.1079,-1.1057,-1.1062,-1.1051,-1.104,-1.1039,-1.1018,-1.1018,-1.0994,-1.0991,-1.0977,-1.0981,-1.0979,-1.0973,-1.0969,-1.0975,-1.0976,-1.0974,-1.0972,-1.0959,-1.0959,-1.0959,-1.0959,0,-1.1139,-1.112,-1.1121,-1.11,-1.1095,-1.11,-1.1082,-1.1083,-1.107,-1.1069,-1.1068,-1.1047,-1.1043,-1.1025,-1.1016,-1.1007,-1.1016,-1.1008,-1.102,-1.1018,-1.1032,-1.1032,-1.1078,-1.1083,-1.1031,-1.1031,-1.1032,0,-1.1161,-1.1164,-1.1143,-1.1141,-1.1133,-1.113,-1.1126,-1.1104,-1.1101,-1.1087,-1.109,-1.1084,-1.1078,-1.1073,-1.1058,-1.1052,-1.1044,-1.1061,-1.1043,-1.105,-1.1046,-1.1047,-1.1047,-1.1065,-1.1066,-1.1066,-1.1067,0,-1.1202,-1.1192,-1.1187,-1.1179,-1.1174,-1.1166,-1.1158,-1.1157,-1.1133,-1.1131,-1.1126,-1.1122,-1.1113,-1.1108,-1.11,-1.1091,-1.1076,-1.1072,-1.1075,-1.1082,-1.109,-1.1087,-1.1032,-1.1072,-1.1071,-1.1071,-1.1071,-1.107,-1.1235,-1.1237,-1.1223,-1.1218,-1.1209,-1.1201,-1.1201,-1.1188,-1.1184,-1.1175,-1.1162,-1.116,-1.1148,-1.1134,-1.1127,-1.1125,-1.1116,-1.112,-1.1121,-1.1123,-1.1126,-1.1089,-1.1123,-1.1123,-1.1123,-1.1123,-1.1123,0,-1.1276,-1.1266,-1.1262,-1.125,-1.1246,-1.1231,-1.122,-1.1219,-1.1216,-1.1206,-1.1201,-1.1196,-1.1191,-1.1175,-1.1169,-1.1171,-1.1164,-1.117,-1.117,-1.1169,-1.1134,-1.1133,-1.1176,-1.1176,-1.1176,-1.1176,-1.1176,-1.1176,-1.1298,-1.13,-1.1289,-1.1287,-1.1277,-1.1274,-1.127,-1.1263,-1.1255,-1.125,-1.1246,-1.1235,-1.1223,-1.1216,-1.1211,-1.1206,-1.1206,-1.1215,-1.1208,-1.1176,-1.1171,-1.1166,-1.1165,-1.1214,-1.1214,-1.1243,-1.1243,-1.1244]},{"header":{"parameterUnit":"m.s-1","parameterCategory":1,"la1":30.2991,"la2":30.254,"lo1":-89.0895,"lo2":-89.0444,"dy":0.0017,"dx":0.0017,"nx":28,"ny":28,"refTime":"2024-06-14T09:00:00:Z","depth":0,"parameterNumber":3,"parameterNumberName":"V-component_of_WINDS"},"data":[0,0,0,0,0,0,0,0,0,0,0,0,0,0,0,0,0,0,0,0,0,0,0,0,0,0,0,0,0,0,0,0,0,0,0,0,0,0,0,0,0,0,0,0,0,0,0,0,0,0,0,0,0,0,0,0,0,0,-1.4158,-1.4158,0,-1.4189,-1.419,-1.419,-1.4155,-1.4153,-1.4152,-1.4151,-1.4183,-1.4185,-1.4187,0,0,0,0,0,0,0,0,0,0,0,0,0,-1.4067,-1.4069,-1.4158,-1.4158,-1.4158,-1.4189,-1.419,-1.419,-1.4155,-1.4153,-1.4152,-1.415,-1.4182,-1.4185,-1.4187,0,0,0,0,0,0,0,0,0,0,0,0,0,-1.4103,-1.407,-1.4157,-1.4145,-1.4144,-1.4189,-1.419,-1.419,-1.4155,-1.4153,-1.4151,-1.4149,-1.4182,-1.4185,-1.4188,-1.4247,0,0,-1.4197,-1.4199,0,0,0,0,0,0,0,0,-1.4101,-1.4107,-1.4146,-1.4146,-1.4145,-1.4166,-1.417,-1.4209,-1.4156,-1.4151,-1.4151,-1.4148,-1.4179,-1.4182,-1.4193,-1.4249,-1.425,-1.4198,-1.42,-1.4201,-1.4202,0,0,0,0,0,0,0,-1.4099,-1.4105,-1.417,-1.4147,-1.4146,-1.4137,-1.414,-1.4177,-1.4176,-1.4151,-1.4149,-1.4153,-1.4178,-1.419,-1.4193,-1.4251,-1.4198,-1.42,-1.4202,-1.4204,-1.4359,-1.4361,0,0,0,0,0,0,-1.4098,-1.4103,-1.4169,-1.4171,-1.4118,-1.4141,-1.4144,-1.4161,-1.4175,-1.4176,-1.4155,-1.4151,-1.4185,-1.4189,-1.4194,-1.4266,-1.4201,-1.4204,-1.4206,-1.4357,-1.436,-1.4362,0,0,0,0,0,0,-1.4096,-1.4104,-1.4168,-1.4137,-1.4144,-1.4144,-1.4164,-1.4163,-1.4174,-1.4178,-1.4178,-1.4166,-1.4184,-1.419,-1.4235,-1.4267,-1.4205,-1.4208,-1.4354,-1.4358,-1.4361,-1.441,0,0,0,0,0,0,-1.4094,-1.4104,-1.4126,-1.4137,-1.4146,-1.4208,-1.4166,-1.4165,-1.418,-1.4176,-1.4189,-1.4189,-1.4183,-1.423,-1.4238,-1.427,-1.4211,-1.4352,-1.4356,-1.436,-1.4406,-1.4415,-1.4423,0,0,0,0,0,-1.409,-1.4138,-1.4127,-1.4136,-1.4174,-1.421,-1.4215,-1.4206,-1.4182,-1.4205,-1.4208,-1.4189,-1.4262,-1.4235,-1.4244,-1.4277,-1.435,-1.4355,-1.436,-1.4402,-1.4413,-1.4423,0,0,0,0,0,0,-1.4131,-1.414,-1.4128,-1.4181,-1.4195,-1.4204,-1.4233,-1.4218,-1.4239,-1.4235,-1.4223,-1.4226,-1.4275,-1.428,-1.425,-1.4336,-1.4302,-1.4309,-1.4331,-1.4342,-1.435,-1.4348,-1.4213,0,0,0,0,0,-1.4146,-1.4174,-1.418,-1.4227,-1.4234,-1.4232,-1.4248,-1.424,-1.4254,-1.426,-1.4266,-1.428,-1.4307,-1.4324,-1.4348,-1.4406,-1.4409,-1.4433,-1.4442,-1.4449,-1.4455,-1.4487,-1.4499,-1.4379,-1.4379,-1.4379,0,0,-1.4177,-1.4186,-1.4204,-1.4235,-1.4245,-1.4275,-1.4238,-1.4271,-1.4293,-1.4265,-1.4309,-1.4313,-1.4329,-1.4381,-1.4404,-1.4387,-1.4489,-1.4455,-1.446,-1.4463,-1.4494,-1.4505,-1.4515,-1.4382,-1.4381,-1.4381,0,0,-1.4251,-1.4259,-1.4299,-1.431,-1.4326,-1.4325,-1.4334,-1.4346,-1.4348,-1.4392,-1.4371,-1.4398,-1.4443,-1.4455,-1.4468,-1.4546,-1.453,-1.4554,-1.4599,-1.463,-1.464,-1.4648,-1.4678,-1.4688,-1.456,-1.4561,-1.4561,0,-1.4288,-1.4332,-1.4322,-1.4357,-1.4371,-1.4347,-1.4389,-1.44,-1.4423,-1.4433,-1.4414,-1.4471,-1.4479,-1.4535,-1.4554,-1.4564,-1.4576,-1.4553,-1.4639,-1.4648,-1.4655,-1.4683,-1.4694,-1.4564,-1.4563,-1.4563,-1.4563,0,-1.4378,-1.4409,-1.444,-1.4463,-1.4481,-1.4519,-1.4515,-1.4534,-1.4525,-1.4525,-1.457,-1.458,-1.4606,-1.4618,-1.4609,-1.4673,-1.4662,-1.4641,-1.4606,-1.467,-1.4696,-1.4707,-1.4568,-1.4567,-1.4566,-1.4565,0,0,-1.4478,-1.4496,-1.4507,-1.4518,-1.4534,-1.4558,-1.4595,-1.4621,-1.4639,-1.4655,-1.4687,-1.4726,-1.4707,-1.4721,-1.4713,-1.4741,-1.4804,-1.4716,-1.4716,-1.4734,-1.4877,-1.4894,-1.4906,-1.4793,-1.4795,-1.4796,-1.4876,0,-1.4553,-1.4617,-1.4609,-1.4671,-1.4701,-1.4679,-1.4711,-1.4724,-1.4726,-1.4751,-1.4753,-1.4781,-1.4753,-1.4762,-1.4788,-1.4791,-1.4833,-1.4785,-1.4823,-1.4825,-1.4822,-1.492,-1.4937,-1.5012,-1.4886,-1.4887,-1.4889,0,-1.4649,-1.467,-1.4735,-1.4748,-1.476,-1.4789,-1.4813,-1.4837,-1.4852,-1.4851,-1.4868,-1.4855,-1.4892,-1.4856,-1.4908,-1.4876,-1.4891,-1.4895,-1.4897,-1.4902,-1.4862,-1.4928,-1.5035,-1.5047,-1.4904,-1.4903,-1.4902,0,-1.4718,-1.4762,-1.4807,-1.4817,-1.4832,-1.4854,-1.4861,-1.4874,-1.4891,-1.4911,-1.4922,-1.4947,-1.4961,-1.498,-1.4975,-1.4949,-1.5029,-1.4992,-1.503,-1.5031,-1.505,-1.5049,-1.5162,-1.5056,-1.5056,-1.5056,-1.5056,0,-1.4803,-1.4844,-1.4838,-1.4866,-1.4912,-1.4902,-1.4948,-1.4952,-1.4964,-1.4993,-1.4974,-1.5002,-1.4992,-1.5019,-1.5015,-1.506,-1.5066,-1.5067,-1.5066,-1.507,-1.507,-1.508,-1.5076,-1.5059,-1.5058,-1.5058,-1.5057,0,-1.4888,-1.4885,-1.4933,-1.4944,-1.4948,-1.4981,-1.4991,-1.5017,-1.5017,-1.5054,-1.5062,-1.5062,-1.5093,-1.5089,-1.5124,-1.5121,-1.5177,-1.5169,-1.5173,-1.5171,-1.5211,-1.5208,-1.5336,-1.5353,-1.5235,-1.5236,-1.5237,0,-1.4943,-1.4975,-1.4989,-1.5007,-1.5016,-1.5046,-1.5063,-1.5054,-1.5073,-1.5093,-1.5117,-1.5146,-1.517,-1.522,-1.5223,-1.525,-1.5243,-1.5286,-1.5247,-1.525,-1.5246,-1.5245,-1.5249,-1.5295,-1.5296,-1.5297,-1.5298,0,-1.5043,-1.504,-1.5065,-1.5091,-1.5112,-1.5132,-1.5149,-1.5165,-1.5158,-1.518,-1.5212,-1.523,-1.5265,-1.5295,-1.532,-1.5328,-1.5313,-1.531,-1.5321,-1.5326,-1.5328,-1.5329,-1.5196,-1.5307,-1.5306,-1.5306,-1.5305,-1.5305,-1.5116,-1.5143,-1.5158,-1.5187,-1.52,-1.5217,-1.5243,-1.5247,-1.5273,-1.5301,-1.5294,-1.5331,-1.5345,-1.5378,-1.5388,-1.5416,-1.54,-1.5415,-1.542,-1.5424,-1.543,-1.5322,-1.542,-1.542,-1.542,-1.542,-1.5419,0,-1.5216,-1.5224,-1.5251,-1.5277,-1.53,-1.5283,-1.5302,-1.5323,-1.5355,-1.537,-1.5394,-1.5431,-1.546,-1.5465,-1.5493,-1.5515,-1.5508,-1.5522,-1.5522,-1.5524,-1.5441,-1.543,-1.5527,-1.5527,-1.5527,-1.5527,-1.5527,-1.5527,-1.527,-1.5317,-1.5316,-1.5368,-1.5376,-1.5412,-1.5424,-1.544,-1.5453,-1.5495,-1.5519,-1.5523,-1.5534,-1.5563,-1.5589,-1.559,-1.5602,-1.5619,-1.5617,-1.554,-1.553,-1.5519,-1.5509,-1.5621,-1.5621,-1.5698,-1.5699,-1.5699]}]]